Trinidad, CO

6:08 PM MST on November 15, 2019 (GMT -0700)
Stokes

Weather History for KTAD - October, 2019

Change the Weather History Date:

Wednesday, October 23, 2019

  Actual Average Record
Temperature  
Mean Temperature 44 °F 50 °F  
Max Temperature 56 °F 66 °F 88 °F (2003)
Min Temperature 32 °F 34 °F 20 °F (1980)
Degree Days  
Heating Degree Days 21 15  
Month to date heating degree days 274 261  
Since 1 July heating degree days 280 371  
Cooling Degree Days 0 0  
Month to date cooling degree days 3 0  
Year to date cooling degree days 1066 716  
Moisture  
Dew Point 26 °F    
Average Humidity 65    
Maximum Humidity 100    
Minimum Humidity 29    
Precipitation  
Precipitation 0.39 in 0.03 in 0.31 in (2000)
Month to date precipitation 0.40 0.65  
Sea Level Pressure  
Sea Level Pressure 30.07 in    
Wind  
Wind Speed 9 mph (North)    
Max Wind Speed 35 mph    
Max Gust Speed 48 mph    
Visibility 7 miles    
Events Rain , Snow    
T = Trace of Precipitation, MM = Missing Value Source: NWS Daily Summary

Daily Weather History Graph

Daily Weather History Graph

Search for Another Location

Airport or City:

Astronomy

Oct. 23, 2019 Rise Set
Actual Time 7:12 AM MDT 6:10 PM MDT
Civil Twilight 6:46 AM MDT 6:36 PM MDT
Nautical Twilight 6:15 AM MDT 7:07 PM MDT
Astronomical Twilight 5:45 AM MDT 7:37 PM MDT
Moon 1:43 AM MDT (10/23) 3:53 PM MDT (10/23)
Length of Visible Light 11h 50m
Length of Day
10h 57m
Waning Crescent, 26% of the Moon is Illuminated
Oct 23
Waning Crescent
Oct 27
New
Nov 4
First Quarter
Nov 12
Full
Nov 19
Last Quarter

Hourly Weather History & Observations

Time (MDT) Temp. Windchill Dew Point Humidity Pressure Visibility Wind Dir Wind Speed Gust Speed Precip Events Conditions
12:54 AM 42.1 °F 36.1 °F 15.1 °F 34% 29.87 in 10.0 mi West 10.4 mph - N/A   Clear
1:54 AM 43.0 °F 37.2 °F 16.0 °F 34% 29.86 in 10.0 mi WSW 10.4 mph - N/A   Clear
2:54 AM 41.0 °F 33.9 °F 17.1 °F 38% 29.87 in 10.0 mi West 12.7 mph - N/A   Clear
3:54 AM 39.0 °F 31.4 °F 18.0 °F 43% 29.86 in 10.0 mi West 12.7 mph - N/A   Clear
4:54 AM 37.9 °F 33.5 °F 18.0 °F 45% 29.88 in 10.0 mi West 5.8 mph - N/A   Clear
5:54 AM 42.1 °F 35.2 °F 19.0 °F 40% 29.88 in 10.0 mi WSW 12.7 mph - N/A   Clear
6:54 AM 36.0 °F 29.0 °F 18.0 °F 48% 29.96 in 10.0 mi West 9.2 mph - N/A   Clear
7:54 AM 39.9 °F 34.5 °F 19.0 °F 43% 29.95 in 10.0 mi West 8.1 mph - N/A   Clear
8:54 AM 46.0 °F - 19.9 °F 35% 29.97 in 10.0 mi Calm Calm - N/A   Clear
9:54 AM 53.1 °F - 21.9 °F 30% 29.96 in 10.0 mi SSE 3.5 mph - N/A   Clear
10:54 AM 51.1 °F - 27.0 °F 39% 30.01 in 10.0 mi ENE 11.5 mph - N/A   Clear
11:54 AM 50.0 °F - 27.0 °F 41% 29.99 in 10.0 mi ENE 8.1 mph - N/A   Clear
12:54 PM 52.0 °F - 27.0 °F 38% 29.97 in 10.0 mi East 6.9 mph - N/A   Clear
1:54 PM 54.0 °F - 25.0 °F 33% 29.92 in 10.0 mi East 8.1 mph - N/A   Clear
2:54 PM 54.0 °F - 24.1 °F 31% 29.91 in 10.0 mi East 6.9 mph - N/A   Clear
3:54 PM 55.0 °F - 24.1 °F 30% 29.92 in 10.0 mi East 9.2 mph - N/A   Clear
4:54 PM 54.0 °F - 27.0 °F 35% 29.94 in 10.0 mi East 9.2 mph - N/A   Clear
5:54 PM 53.1 °F - 26.1 °F 35% 29.96 in 10.0 mi NE 15.0 mph - N/A   Scattered Clouds
6:54 PM 51.1 °F - 24.1 °F 35% 30.07 in 10.0 mi NE 11.5 mph 23.0 mph N/A   Overcast
7:54 PM 37.9 °F 28.2 °F 35.1 °F 89% 30.19 in 10.0 mi NNE 18.4 mph 36.8 mph 0.00 in Rain Light Rain
8:17 PM 36.0 °F 25.6 °F 34.0 °F 93% 30.24 in 8.0 mi NNE 18.4 mph 33.4 mph 0.02 in Snow Light Snow
8:22 PM 35.1 °F 24.5 °F 33.1 °F 92% 30.24 in 4.0 mi NNE 18.4 mph 28.8 mph 0.02 in Snow Light Snow
8:26 PM 34.0 °F 23.0 °F 33.1 °F 96% 30.24 in 2.5 mi NNE 18.4 mph 24.2 mph 0.02 in Snow Light Snow
8:34 PM 34.0 °F 24.6 °F 33.1 °F 96% 30.25 in 1.5 mi NNE 13.8 mph - 0.03 in Snow Light Snow
8:54 PM 33.1 °F 26.1 °F 33.1 °F 100% 30.24 in 1.2 mi North 8.1 mph - 0.05 in Snow Light Snow
9:36 PM 33.1 °F 26.9 °F 33.1 °F 100% 30.29 in 0.8 mi NNW 6.9 mph - 0.05 in Snow Light Snow
9:45 PM 33.1 °F 27.7 °F 33.1 °F 100% 30.29 in 1.5 mi NW 5.8 mph - 0.05 in Snow Light Snow
9:54 PM 33.1 °F 28.7 °F 33.1 °F 100% 30.25 in 2.0 mi WNW 4.6 mph - 0.06 in Snow Light Snow
10:05 PM 33.1 °F 27.7 °F 32.0 °F 96% 30.30 in 1.5 mi NW 5.8 mph - 0.02 in Snow Light Snow
10:20 PM 33.1 °F 27.7 °F 32.0 °F 96% 30.30 in 0.8 mi NNW 5.8 mph - 0.06 in Snow Light Snow
10:54 PM 33.1 °F 27.7 °F 32.0 °F 96% 30.27 in 0.8 mi North 5.8 mph - 0.12 in Snow Light Snow
11:54 PM 32.0 °F 27.5 °F 32.0 °F 100% 30.27 in 0.8 mi North 4.6 mph - 0.09 in Snow Light Snow